Flag for Austria Weather past 2 weeks in Graz, Styria, Austria

Now
36 °F

Clear.


Feels Like: 36 °F
Forecast: 29 / 48 °F
Wind: 2 mph from Northwest

Location: Graz-Thalerhof-Flughafen

Current Time: Mar 1, 2015 at 10:14:58 PM

Latest Report: Mar 1, 2015 at 9:20 PM


Visibility: 10 mi

Pressure: 29.86 "Hg

Humidity: 93%

Dew point: 34 °F

Location of GrazLocation

Historic Weather in Graz — Graph

°F

Graz temperature yesterday

Maximum temperature yesterday: 48 °F (at 12:20 PM)
Minimum temperature yesterday: 32 °F (at 1:50 AM)
Average temperature yesterday: 41 °F

Past Weeks' High & Low Weather Summary

 TemperatureHumidityPressure
High54 °F (Feb 21, 12:20 PM)100% (Feb 15, 5:20 AM)30.72 "Hg (Feb 15, 5:20 AM)
Low21 °F (Feb 20, 7:20 AM)33% (Feb 21, 12:50 PM)29.59 "Hg (Feb 23, 3:50 PM)
Average38 °F78%30.04 "Hg
* Reported Feb 14 8:20 PM — Mar 1 8:20 PM, Graz, Weather by CustomWeather, © 2015

Note: Actual official high and low records may vary slightly from our data, if they occured in-between our weather recording intervals... More about our weather records

Advertising

Graz weather history for previous 24 hours

 ConditionsComfort  
Time TempWeatherWind HumidityBarometerVisibility
8:20 PM
Sun, Mar 1
36 °FClear.1 mph81%29.86 "Hg10 mi
7:50 PM41 °FClear.1 mph76%29.86 "Hg10 mi
7:20 PM41 °FClear.2 mph76%29.86 "Hg10 mi
6:50 PM43 °FPassing clouds.1 mph76%29.86 "HgN/A
6:20 PM43 °FPassing clouds.3 mph66%29.83 "HgN/A
5:50 PM46 °FPassing clouds.3 mph62%29.86 "HgN/A
5:20 PM48 °FPartly sunny.2 mph58%29.86 "HgN/A
4:50 PM48 °FSunny.No wind58%29.83 "Hg10 mi
4:20 PM48 °FBroken clouds.2 mph58%29.83 "HgN/A
3:50 PM48 °FPartly sunny.2 mph58%29.83 "HgN/A
3:20 PM48 °FPartly sunny.3 mph58%29.86 "HgN/A
2:50 PM48 °FBroken clouds.3 mph54%29.86 "HgN/A
2:20 PM48 °FPartly sunny.2 mph54%29.86 "HgN/A
1:50 PM48 °FBroken clouds.3 mph58%29.86 "HgN/A
1:20 PM46 °FPassing clouds.5 mph62%29.89 "HgN/A
12:50 PM48 °FPassing clouds.6 mph58%29.89 "HgN/A
12:20 PM48 °FSunny.2 mph54%29.89 "Hg10 mi
11:50 AM45 °FSunny.3 mph66%29.92 "Hg10 mi
11:20 AM45 °FPassing clouds.3 mph61%29.92 "HgN/A
10:50 AM43 °FPassing clouds.3 mph66%29.92 "HgN/A
10:20 AM41 °FSunny.2 mph70%29.95 "Hg10 mi
9:50 AM41 °FSunny.2 mph76%29.95 "Hg10 mi
9:20 AM39 °FSunny.1 mph75%29.95 "Hg10 mi
8:50 AM37 °FSunny.1 mph81%29.98 "Hg10 mi
8:20 AM36 °FPartly sunny.2 mph87%29.98 "Hg5 mi
7:50 AM32 °FScattered clouds.2 mph93%29.98 "Hg4 mi
7:20 AM28 °FFog.2 mph100%29.98 "Hg4 mi
6:50 AM28 °FLight fog.1 mph93%29.98 "Hg4 mi
6:20 AM28 °FFog.1 mph93%29.98 "Hg4 mi
5:50 AM30 °FClear.1 mph93%30.01 "Hg6 mi
5:20 AM32 °FClear.1 mph93%30.01 "Hg10 mi
4:50 AM30 °FPassing clouds.2 mph93%30.01 "HgN/A
4:20 AM32 °FPassing clouds.1 mph87%30.01 "HgN/A
3:50 AM34 °FPassing clouds.1 mph87%30.01 "HgN/A
3:20 AM34 °FChilly.1 mph87%30.01 "HgN/A
2:50 AM34 °FPassing clouds.2 mph81%30.04 "HgN/A
2:20 AM37 °FPassing clouds.2 mph81%30.04 "HgN/A
1:50 AM37 °FPassing clouds.5 mph81%30.04 "HgN/A
1:20 AM39 °FOvercast.3 mph81%30.07 "HgN/A
12:50 AM39 °FOvercast.1 mph75%30.07 "HgN/A
12:20 AM39 °FPassing clouds.1 mph75%30.07 "HgN/A
11:50 PM
Sat, Feb 28
39 °FPassing clouds.2 mph81%30.07 "HgN/A
11:20 PM41 °FPassing clouds.1 mph70%30.09 "HgN/A
10:50 PM41 °FPassing clouds.1 mph70%30.09 "HgN/A
10:20 PM41 °FPassing clouds.No wind70%30.09 "HgN/A
Weather by CustomWeather, © 2015

See weather overviewHow to use our weather pages